COSMOS 1275 DEB, 18637

Orbit data source: Space-Track

COSMOS 1275 DEB, 18637 is space debris in LEO originally from a launch on Thu, 04 Jun 1981 UTC launched from the Plesetsk Missile And Space Complex (PKMTR). Debris objects in space refer to the collection of defunct objects orbiting the Earth. Examples of debris include non-operational satellites, rocket bodies, and fragments generated from explosions, collisions, or faulty payload assembly.

Loading next visibility...
Identifier
18637, 1981-053LX
Orbit
LEO
Country
Flag of CISCIS
Related business
Manufacturer
Unknown
Mission
Spacecraft
Bus & Motor
Unknown
Mass
Unknown
Launch date (UTC)
1981-06-04 (45 years ago)
Launch vehicle
Unknown
Launch site
Plesetsk Missile And Space Complex (PKMTR)
Object type
Payload
Rocket body
Debris
Shape & HBR
Unknown shape, 0.1 m
Radar Cross Section
Small (<0.1 m²)

Expand to show TLE details & history
Last TLE update: 2 days ago

TLE from 2 days ago
0 COSMOS 1275 DEB
1 18637U 81053LX  25348.89527686  .00003072  00000-0  12977-2 0  9995
2 18637  82.9634  52.7732 0046682 330.0065  29.8446 14.24756858 70952
Epoch: 2025-12-14T21:29Z
TLE epoch observation values (Epoch: 2025-12-14T21:29:11.920Z)
Latitude
0.00002°
Longitude
6.6719°
Altitude
783.21 km
Speed
7.477 km/s
True Right ascension
03h 31m 05s
True Declination
0° 00' 00"
Sunlit
Object was in full shadow at epoch
Visualization orbit readout
Latitude
Unknown
Longitude
Unknown
Altitude
Unknown
Speed
Unknown
Apparent Right ascension
Unknown
Apparent Declination
Unknown
Sunlit
N/A
Visualization observer readout
Local Sidereal Time
19:28:34
Azimuth
Unknown
Elevation
Unknown
Doppler factor
Unknown
Orbital elements
Apogee altitude
839.928 km
Perigee altitude
772.851 km
Semi-major axis
7,184.527 km
Eccentricity
0.00467
Inclination
82.9634°
RAAN
52.7732°
Arg. of periapsis
330.0065°
True anomaly
30.11216°
Mean anomaly
29.8446°
Eccentric anomaly
29.97825°
Mean motion
3.56407 °/min
Orbital period
101.01 mins
BSTAR
0.0012977
Loading maneuver chart data...
Computing Atmospheric mass density...
Loading historical data...
Loading historical data...
Loading historical data...
Loading historical data...
Loading historical data...
Loading historical data...
Loading historical data...

Documentation

Showing up to 5 results
|